Voltar ao catálogo

CZ-4C DEB

AtivoLEO
NORAD 40114·DEBRIS·🇨🇳 China

Lançado Aug 9, 2014 de Jiuquan Satellite Launch Center

Loading…

Próximas Passagens (próximas 24 horas)

TLE

AtualizadoSource: Space-Track

Época: Sep 14, 2026, 04:15 UTC

1 40114U 14047F   26257.17738611  .00000098  00000-0  20018-3 0  9993
2 40114  63.3786 178.0082 0398083  15.5452 345.7393 13.44483372593879

Acompanhe CZ-4C DEB em tempo real com AllMySat

Download on the App Store